Tracking 31027 objects as of 19-Jul-2025
HD Live streaming from Space Station
objects crossing your sky now

ECHOSTAR 1

Track ECHOSTAR 1 now!
ECHOSTAR 1 is classified as:


NORAD ID: 23754
Int'l Code: 1995-073A
Perigee: 36,165.5 km
Apogee: 36,180.2 km
Inclination: 7.8 °
Period: 1,455.5 minutes
Semi major axis: 42543 km
RCS: 30.9641 m2 (large)
Launch date: December 28, 1995
Source: United States (US)
Launch site: Xichang Space Center, China (XSC)

Western United States to Central/Mountain region; 16 Ku-band transponders
Your satellite tracking list
Your tracking list is empty




NASA's NSSDC Master Catalog

Two Line Element Set (TLE):
1 23754U 95073A   25198.34021473 -.00000222  00000-0  00000-0 0  9991
2 23754   7.7904  66.5856 0001736 122.2941 213.4243  0.98934527 48686
Source of the keplerian elements: AFSPC